Nenana, AK

2:45 PM AKDT on August 22, 2017 (GMT -0800)
Nenana Municipal

Weather History for PANN - February, 2014

Change the Weather History Date:

Tuesday, February 18, 2014

  Actual Average Record
Temperature  
Mean Temperature 10 °F -  
Max Temperature 37 °F 4 °F 55 °F (1958)
Min Temperature -18 °F -18 °F -35 °F (2013)
Degree Days  
Heating Degree Days 55    
Moisture  
Dew Point -8 °F    
Average Humidity 68    
Maximum Humidity 100    
Minimum Humidity 54    
Precipitation  
Precipitation 0.24 in - - ()
Sea Level Pressure  
Sea Level Pressure 29.50 in    
Wind  
Wind Speed 5 mph (NW)    
Max Wind Speed 13 mph    
Max Gust Speed -    
Visibility 9 miles    
Events Snow    
Averages and records for this station are not official NWS values.
T = Trace of Precipitation, MM = Missing Value Source: NWS Daily Summary

Daily Weather History Graph

Daily Weather History Graph

Search for Another Location

Airport or City:

Trip Planner

Search our weather history database for the weather conditions in past years. The results will help you decide how hot, cold, wet, or windy it might be!

Date:

Astronomy

Feb. 18, 2014 Rise Set
Actual Time 8:42 AM AKST 5:39 PM AKST
Civil Twilight 7:51 AM AKST 6:30 PM AKST
Nautical Twilight 6:55 AM AKST 7:26 PM AKST
Astronomical Twilight 5:58 AM AKST 8:23 PM AKST
Moon 11:26 PM AKST (2/18) 8:49 AM AKST (2/18)
Length of Visible Light 10h 38m
Length of Day
8h 56m
Waning Gibbous, 86% of the Moon is Illuminated
Feb 18
Waning Gibbous
Feb 22
Last Quarter
Feb 28
New
Mar 8
First Quarter
Mar 16
Full

Hourly Weather History & Observations

Time (AKST) Temp. Windchill Dew Point Humidity Pressure Visibility Wind Dir Wind Speed Gust Speed Precip Events Conditions
12:53 AM -2.9 °F -15.0 °F -11.9 °F 65% 29.46 in 10.0 mi NW 5.8 mph - N/A   Overcast
1:53 AM -2.9 °F -15.0 °F -11.9 °F 65% 29.48 in 9.0 mi NNW 5.8 mph - 0.00 in Snow Light Snow
3:53 AM -6.0 °F -20.1 °F -14.1 °F 68% 29.51 in 10.0 mi NNW 6.9 mph - N/A   Scattered Clouds
4:53 AM -6.0 °F -18.6 °F -15.0 °F 65% 29.52 in 10.0 mi NNW 5.8 mph - N/A   Partly Cloudy
5:24 AM -6.0 °F -20.1 °F -14.1 °F 68% 29.48 in 7.0 mi NW 6.9 mph - N/A   Mostly Cloudy
5:53 AM -7.1 °F -19.9 °F -14.1 °F 72% 29.54 in 7.0 mi NW 5.8 mph - N/A   Overcast
6:53 AM -6.0 °F -14.7 °F -14.1 °F 68% 29.55 in 7.0 mi NNW 3.5 mph - N/A   Overcast
7:53 AM -6.0 °F - -13.0 °F 72% 29.56 in 10.0 mi Calm Calm - N/A   Overcast
8:53 AM -6.0 °F - -13.0 °F 72% 29.57 in 10.0 mi Calm Calm - N/A   Overcast
9:53 AM -6.0 °F -14.7 °F -13.0 °F 72% 29.57 in 10.0 mi South 3.5 mph - N/A   Overcast
10:53 AM -5.1 °F - -13.0 °F 69% 29.58 in 10.0 mi Calm Calm - N/A   Mostly Cloudy
11:43 AM -4.0 °F -12.4 °F -13.0 °F 65% 29.53 in 10.0 mi NW 3.5 mph - N/A   Scattered Clouds
11:53 AM -4.0 °F -14.6 °F -13.0 °F 65% 29.57 in 10.0 mi NNW 4.6 mph - N/A   Scattered Clouds
12:14 PM -2.0 °F -12.2 °F -11.9 °F 63% 29.52 in 10.0 mi NW 4.6 mph - N/A   Mostly Cloudy
12:43 PM -0.9 °F -11.0 °F -11.0 °F 62% 29.52 in 10.0 mi NW 4.6 mph - N/A   Scattered Clouds
12:53 PM -0.9 °F -11.0 °F -11.0 °F 62% 29.57 in 10.0 mi NW 4.6 mph - N/A   Partly Cloudy
1:53 PM 1.0 °F -6.7 °F -11.0 °F 57% 29.56 in 10.0 mi Variable 3.5 mph - N/A   Clear
2:53 PM 1.0 °F - -11.0 °F 57% 29.55 in 10.0 mi Calm Calm - N/A   Clear
3:53 PM -0.0 °F -9.9 °F -13.0 °F 54% 29.54 in 10.0 mi NW 4.6 mph - N/A   Clear
4:53 PM -2.0 °F -13.9 °F -14.1 °F 57% 29.54 in 10.0 mi NNW 5.8 mph - N/A   Clear
5:53 PM -4.0 °F -17.8 °F -14.1 °F 62% 29.54 in 10.0 mi NW 6.9 mph - N/A   Clear
6:53 PM -5.1 °F -17.6 °F -15.0 °F 62% 29.54 in 10.0 mi NW 5.8 mph - N/A   Scattered Clouds
7:53 PM -6.0 °F -20.1 °F -16.1 °F 62% 29.54 in 10.0 mi NW 6.9 mph - N/A   Mostly Cloudy
8:53 PM -9.0 °F - -17.0 °F 68% 29.55 in 10.0 mi Calm Calm - N/A   Clear
9:53 PM -14.1 °F - -20.0 °F 75% 29.56 in 10.0 mi Calm Calm - N/A   Clear
10:53 PM -17.0 °F - -23.1 °F 74% 29.57 in 10.0 mi Calm Calm - N/A   Clear
11:53 PM -18.0 °F - -24.0 °F 74% 29.57 in 10.0 mi Calm Calm - N/A   Clear